Wind_Speed
21 21 22 22 22 21 22 21 21 22 22 23 23 24 24 25 26 26 27 28 29 29 29 29 30 30 30 29 28 29 29 29 28 28 28 28 28 28 29 30 30 30 29
22 22 21 21 21 22 22 22 22 23 24 24 24 25 25 26 27 28 28 29 30 31 31 31 31 30 30 30 30 29 30 30 30 29 29 29 29 28 29 30 31 31 30
21 21 22 22 22 22 22 22 22 23 24 25 25 25 26 27 29 29 28 29 29 30 31 31 31 31 30 30 30 30 30 30 30 29 29 29 29 29 29 30 31 32 31
23 23 23 23 23 23 23 23 23 24 25 26 26 26 27 28 28 28 27 28 29 30 30 31 31 31 31 30 30 30 30 29 30 29 29 29 29 29 29 30 30 31 32
23 23 23 23 23 23 22 22 23 24 25 25 26 27 27 28 28 29 29 29 30 29 30 30 30 30 30 30 30 30 29 29 28 29 29 29 29 29 30 30 30 30 31
23 23 23 23 23 23 22 23 24 24 24 25 26 27 28 28 29 29 28 28 29 29 29 29 29 29 29 29 29 29 28 29 28 29 29 29 28 29 29 29 30 30 30
22 23 23 23 23 24 24 24 24 24 25 26 27 27 27 28 28 28 28 28 28 29 28 29 28 28 28 28 27 27 27 27 28 28 27 28 28 27 28 28 28 28 28
21 22 22 23 23 24 24 24 25 26 26 27 27 28 27 27 26 27 26 27 26 26 26 26 26 26 26 25 25 25 25 25 26 26 26 26 26 26 26 25 25 25 26
22 22 23 23 23 23 24 25 26 27 27 28 28 27 26 24 25 25 24 25 25 25 24 24 24 23 23 24 24 24 24 23 23 23 24 25 25 25 25 25 25 25 24
22 22 23 24 24 24 24 25 26 27 27 27 26 26 24 23 23 23 23 23 23 22 22 22 21 21 21 21 22 22 22 22 21 22 22 23 23 23 23 25 25 26 25
22 22 23 23 24 24 24 25 26 26 26 25 23 23 22 22 22 22 22 22 21 20 20 20 19 19 19 19 19 19 20 20 19 19 19 19 20 21 21 22 22 23 24
21 22 22 22 22 23 24 25 24 24 23 23 21 21 21 21 20 20 19 19 19 19 19 18 17 17 17 17 17 17 17 17 16 16 16 16 17 18 19 20 21 21 21
20 21 21 21 22 22 23 22 22 22 21 21 19 20 19 18 18 18 18 18 18 18 17 16 16 16 16 16 15 14 15 15 14 13 13 14 15 16 17 17 18 18 19
20 20 19 19 20 20 20 20 19 19 19 18 17 16 16 15 16 16 16 16 16 16 15 15 16 15 14 14 14 14 14 13 13 13 13 14 13 14 15 14 14 15 16
19 19 18 18 18 18 18 17 17 16 15 15 14 14 14 14 14 14 14 14 14 14 14 14 14 13 13 13 13 13 12 11 11 12 12 12 12 12 12 12 12 13 13
18 18 17 16 16 16 15 14 14 13 12 12 12 12 12 12 12 12 13 12 12 12 12 12 12 11 11 12 11 10 10 10 10 9 9 9 9 10 10 10 10 10 11
16 16 16 15 14 13 13 12 12 11 11 11 11 11 11 10 11 11 11 11 11 11 11 11 11 10 10 10 10 9 9 8 7 6 6 6 6 6 6 6 7 7 7
15 14 14 13 11 11 10 10 10 9 10 10 10 10 10 10 10 10 10 10 10 10 10 9 10 10 10 9 9 9 8 6 5 5 5 4 4 3 3 3 4 4 4
13 12 11 11 10 10 9 10 9 9 9 9 9 9 9 9 9 9 10 10 10 9 9 9 9 9 9 9 8 8 7 6 5 5 4 3 2 2 2 2 2 3 3
11 11 10 10 9 9 8 8 7 7 7 8 8 7 7 8 9 9 9 9 9 9 8 8 8 8 7 7 7 7 7 5 5 5 4 3 2 2 2 2 2 2 2
10 9 8 8 7 7 6 6 6 6 6 6 7 7 7 8 9 9 9 9 9 8 8 8 8 7 7 7 7 7 6 5 5 5 4 3 2 3 2 2 1 1 2
8 7 7 6 6 6 5 5 4 5 5 6 7 7 7 7 8 8 8 8 8 9 8 8 8 8 7 7 7 6 5 5 5 5 4 4 3 3 2 1 1 2 2
7 7 6 6 5 5 4 4 4 4 4 5 6 6 6 6 7 7 8 8 8 9 9 9 8 8 8 7 7 6 5 4 4 4 4 5 4 3 2 2 1 2 2
6 6 5 4 4 4 3 4 4 3 4 4 5 5 6 6 6 6 7 8 8 9 9 9 9 8 8 8 7 6 5 4 4 4 4 4 4 4 3 3 2 3 3
5 5 4 4 4 3 3 3 4 4 4 4 4 5 5 5 5 6 7 8 9 9 9 9 8 8 8 8 7 6 5 5 4 4 4 4 4 4 4 4 4 4 4
5 5 4 4 3 3 2 3 4 4 4 4 5 5 5 5 5 5 6 7 8 8 8 8 8 8 8 8 7 7 6 5 5 5 4 4 4 4 4 5 5 5 5
Wind_Direction
282 285 287 287 288 290 291 290 290 290 290 290 288 287 286 286 286 286 286 285 284 283 282 282 282 281 280 279 279 279 278 277 277 275 273 270 269 266 262 257 255 255 256
283 284 287 287 288 291 290 289 290 290 288 288 289 288 287 287 287 286 286 285 284 283 283 281 281 280 280 279 280 280 279 277 275 274 272 270 268 267 263 260 257 256 256
284 284 287 289 290 291 291 290 290 290 289 289 289 288 289 289 289 289 287 285 284 285 284 282 281 280 280 280 279 279 279 277 274 273 271 270 268 266 262 261 259 257 257
281 284 287 288 288 290 290 291 293 294 294 293 291 291 291 290 291 291 290 288 286 285 285 285 283 281 280 280 279 279 278 277 274 271 270 269 267 264 262 260 260 258 257
281 283 285 287 288 288 289 289 292 293 293 291 290 291 290 291 293 291 289 289 288 286 285 286 284 282 280 280 280 279 277 276 274 273 272 269 267 264 262 260 259 259 258
282 284 285 285 286 288 289 288 288 290 291 291 291 291 292 292 292 292 291 290 289 288 287 285 285 283 281 282 280 278 277 276 275 274 272 270 267 265 263 260 258 259 259
283 284 284 285 286 288 289 289 288 290 292 294 295 293 291 292 292 293 292 291 290 291 291 287 286 285 284 283 282 280 278 277 276 275 272 270 267 264 263 261 259 258 257
285 285 284 285 287 288 289 288 289 293 294 295 295 293 293 293 293 294 294 293 294 294 292 291 290 288 286 285 283 283 281 279 279 276 273 271 267 264 262 260 260 259 257
285 284 284 285 287 287 287 288 289 292 294 296 296 296 294 294 294 295 296 297 297 297 296 294 293 292 290 287 286 283 280 280 279 276 273 269 268 265 260 259 261 261 259
285 285 285 285 286 286 288 289 290 291 294 296 296 295 294 294 295 297 297 298 299 299 299 298 298 297 293 290 287 284 281 281 279 276 273 270 267 267 263 262 262 261 260
288 288 287 288 288 288 289 289 290 291 293 295 295 295 294 293 295 297 298 301 300 301 302 301 301 300 297 295 290 287 284 282 281 278 274 271 268 265 263 261 262 262 263
292 290 289 288 289 289 290 289 289 290 291 293 294 296 295 293 295 298 300 302 302 303 305 306 304 303 301 299 296 292 289 285 282 278 275 272 268 265 264 262 262 262 262
295 294 290 288 289 290 290 287 286 288 291 292 293 295 295 296 299 302 303 303 304 304 306 307 308 307 304 303 301 299 294 288 281 278 277 275 270 266 265 266 264 261 260
297 300 297 293 291 291 291 291 289 291 292 292 293 294 294 298 301 304 306 307 306 306 307 308 311 310 308 308 307 306 300 291 285 282 279 277 272 268 265 265 263 260 260
300 302 300 297 295 295 295 296 296 296 293 295 295 296 298 299 303 305 306 308 308 310 311 313 315 313 311 311 313 313 311 304 293 284 279 276 273 272 269 265 262 260 259
301 302 302 300 298 296 297 298 299 301 301 304 304 305 302 301 305 308 308 311 314 316 316 317 324 321 318 319 321 324 320 314 303 293 287 280 278 274 272 269 265 263 260
299 300 302 302 299 299 299 297 299 301 303 309 310 306 307 308 310 312 317 321 321 321 321 322 329 330 326 328 329 328 326 323 318 306 299 292 288 281 273 266 264 258 255
301 301 301 302 300 302 301 299 302 304 307 309 313 313 311 312 313 318 320 324 325 320 322 323 325 330 331 329 332 335 337 339 339 333 314 295 296 290 275 271 267 253 248
307 306 304 301 300 302 301 299 300 306 311 312 314 318 317 318 323 325 324 323 323 323 326 325 327 331 330 331 334 341 343 346 352 348 339 328 327 323 305 292 278 261 256
312 311 309 305 302 300 299 298 300 305 311 314 317 318 322 324 329 332 330 329 331 331 328 329 333 332 331 335 342 343 346 357 3 1 357 354 344 335 328 322 301 262 249
315 317 316 314 313 308 302 303 302 306 313 318 321 322 323 325 332 335 336 337 338 339 338 337 334 334 335 339 344 350 358 1 359 359 357 348 341 344 343 335 317 267 251
321 325 323 324 325 321 312 308 309 312 318 328 330 330 330 335 343 348 350 350 348 347 345 343 341 337 334 335 337 342 349 351 354 360 2 359 348 338 335 336 326 293 265
322 323 324 327 332 332 328 319 321 322 325 334 340 343 341 341 345 350 354 355 356 358 358 353 347 345 339 333 331 335 339 344 347 351 358 0 358 352 348 344 339 325 299
327 329 333 335 337 336 338 337 331 333 335 338 347 353 354 354 357 1 3 3 2 0 1 358 354 354 356 351 345 342 340 342 342 341 346 350 354 355 347 337 336 342 334
340 344 348 347 348 354 357 356 355 350 346 346 351 356 355 358 1 6 6 6 7 6 5 3 6 6 3 3 1 357 355 356 358 356 355 352 351 346 343 340 338 332 327
357 1 9 12 16 14 12 10 14 10 6 3 356 0 10 10 4 2 2 1 2 3 4 8 9 9 8 7 5 1 2 6 5 357 353 351 346 339 332 324 319 314 309
Height
5867 5866 5864 5863 5862 5860 5858 5857 5855 5853 5851 5849 5848 5846 5844 5842 5840 5838 5836 5834 5832 5830 5829 5827 5825 5823 5821 5820 5819 5818 5816 5815 5814 5813 5812 5811 5811 5811 5811 5811 5812 5813 5813
5862 5861 5859 5858 5857 5855 5853 5852 5849 5847 5845 5844 5842 5840 5838 5836 5834 5831 5828 5826 5824 5823 5821 5820 5818 5816 5814 5813 5812 5810 5809 5807 5806 5806 5805 5804 5804 5803 5803 5804 5804 5805 5806
5858 5856 5855 5854 5852 5850 5849 5846 5844 5842 5840 5839 5836 5834 5832 5830 5827 5824 5821 5819 5817 5815 5814 5812 5810 5808 5806 5805 5804 5802 5801 5800 5799 5798 5797 5796 5796 5796 5796 5796 5797 5798 5798
5853 5852 5850 5849 5847 5845 5843 5841 5839 5837 5835 5834 5831 5829 5826 5823 5820 5817 5815 5812 5810 5807 5805 5804 5802 5800 5798 5797 5795 5794 5793 5792 5791 5790 5789 5789 5788 5788 5788 5789 5789 5789 5790
5848 5847 5845 5843 5841 5839 5837 5836 5834 5832 5830 5828 5825 5822 5819 5817 5814 5811 5808 5805 5802 5799 5797 5796 5793 5792 5790 5788 5787 5786 5785 5783 5782 5782 5781 5780 5780 5780 5780 5781 5781 5781 5782
5842 5841 5840 5838 5836 5834 5832 5830 5829 5827 5824 5822 5819 5816 5813 5810 5807 5804 5801 5798 5795 5793 5790 5788 5786 5784 5782 5780 5779 5777 5776 5775 5774 5773 5773 5772 5772 5772 5772 5773 5773 5774 5775
5837 5836 5834 5832 5830 5829 5827 5825 5823 5821 5819 5816 5812 5809 5806 5803 5800 5797 5794 5791 5788 5785 5782 5780 5778 5776 5774 5772 5771 5770 5768 5767 5766 5765 5764 5764 5764 5764 5764 5765 5766 5766 5767
5832 5830 5828 5827 5825 5823 5821 5819 5817 5815 5812 5809 5806 5803 5799 5796 5793 5791 5787 5784 5781 5778 5775 5772 5770 5768 5767 5765 5764 5763 5761 5760 5759 5758 5757 5756 5756 5757 5757 5758 5759 5760 5761
5826 5825 5823 5821 5819 5817 5815 5813 5811 5809 5806 5803 5799 5795 5792 5790 5787 5784 5781 5779 5775 5772 5769 5766 5764 5762 5760 5759 5758 5756 5755 5753 5752 5751 5750 5749 5749 5750 5750 5751 5752 5753 5754
5821 5819 5817 5815 5813 5811 5809 5807 5805 5802 5799 5796 5792 5789 5786 5784 5781 5779 5776 5773 5770 5767 5764 5761 5759 5756 5755 5753 5751 5750 5748 5747 5745 5744 5743 5743 5743 5743 5744 5745 5746 5746 5747
5815 5813 5811 5809 5807 5805 5803 5801 5798 5795 5793 5790 5786 5784 5781 5778 5776 5773 5771 5768 5765 5763 5760 5757 5754 5752 5749 5747 5746 5744 5742 5741 5739 5738 5737 5737 5737 5737 5738 5738 5739 5739 5740
5810 5807 5805 5803 5801 5799 5797 5794 5792 5789 5786 5784 5781 5779 5776 5773 5771 5769 5766 5763 5761 5758 5755 5752 5750 5748 5745 5743 5741 5738 5737 5735 5734 5733 5733 5732 5732 5732 5732 5733 5733 5733 5734
5804 5802 5799 5797 5795 5793 5791 5788 5785 5783 5781 5778 5776 5774 5771 5769 5767 5764 5762 5759 5757 5754 5751 5749 5746 5744 5741 5739 5736 5734 5732 5730 5729 5729 5728 5728 5727 5727 5727 5727 5728 5728 5728
5799 5797 5794 5792 5790 5787 5785 5783 5781 5778 5776 5774 5771 5769 5767 5765 5763 5760 5758 5755 5753 5750 5748 5745 5743 5740 5737 5735 5733 5731 5729 5727 5725 5725 5724 5724 5723 5723 5723 5723 5723 5723 5724
5794 5792 5789 5787 5785 5783 5780 5778 5776 5774 5772 5769 5767 5765 5763 5761 5759 5757 5755 5752 5750 5747 5745 5742 5739 5737 5734 5732 5729 5727 5725 5723 5722 5722 5721 5720 5720 5719 5719 5720 5720 5720 5720
5790 5787 5785 5782 5780 5778 5776 5774 5772 5770 5768 5766 5764 5762 5760 5758 5756 5754 5752 5749 5747 5744 5742 5740 5737 5734 5732 5729 5727 5725 5723 5721 5720 5719 5718 5717 5717 5717 5717 5717 5717 5717 5717
5785 5783 5780 5778 5776 5774 5772 5771 5769 5768 5766 5764 5762 5759 5757 5756 5753 5751 5749 5747 5744 5742 5740 5738 5735 5733 5730 5728 5725 5723 5721 5719 5718 5717 5716 5715 5715 5715 5714 5714 5714 5715 5715
5781 5779 5776 5774 5772 5771 5769 5768 5766 5765 5763 5761 5759 5757 5755 5753 5751 5749 5747 5745 5742 5740 5738 5736 5734 5732 5729 5727 5724 5722 5720 5718 5717 5716 5715 5714 5714 5714 5713 5713 5713 5714 5713
5777 5775 5772 5770 5769 5768 5766 5765 5764 5762 5761 5759 5757 5755 5754 5752 5750 5747 5745 5743 5741 5739 5737 5735 5733 5730 5728 5726 5724 5722 5720 5718 5717 5716 5715 5714 5713 5713 5713 5712 5712 5712 5712
5774 5771 5769 5767 5766 5765 5764 5763 5762 5760 5759 5757 5756 5754 5752 5750 5748 5746 5744 5742 5740 5738 5736 5734 5732 5730 5728 5725 5723 5721 5719 5718 5717 5716 5715 5714 5713 5713 5713 5712 5712 5712 5712
5771 5769 5767 5765 5764 5763 5762 5761 5760 5759 5757 5756 5754 5753 5751 5749 5747 5745 5743 5741 5739 5737 5735 5733 5731 5729 5727 5725 5723 5721 5720 5718 5717 5716 5715 5714 5714 5713 5712 5712 5712 5711 5711
5769 5767 5766 5764 5763 5761 5760 5759 5758 5757 5756 5755 5753 5752 5750 5748 5746 5744 5742 5740 5738 5736 5734 5732 5730 5728 5726 5725 5723 5721 5720 5719 5718 5716 5715 5714 5714 5713 5712 5712 5712 5711 5711
5767 5766 5764 5763 5761 5760 5759 5758 5757 5756 5755 5754 5752 5751 5749 5747 5746 5744 5742 5740 5738 5736 5734 5732 5729 5727 5725 5724 5722 5721 5720 5719 5718 5717 5716 5715 5714 5713 5712 5712 5711 5711 5711
5766 5764 5763 5761 5760 5759 5758 5757 5756 5755 5754 5753 5751 5750 5749 5747 5745 5744 5742 5740 5738 5736 5734 5732 5729 5727 5725 5724 5722 5721 5720 5719 5718 5717 5716 5715 5714 5713 5712 5712 5711 5711 5710
5764 5763 5762 5760 5759 5759 5758 5757 5756 5755 5753 5752 5751 5750 5748 5747 5745 5744 5742 5740 5738 5736 5734 5732 5730 5728 5726 5724 5722 5721 5720 5718 5717 5716 5716 5715 5714 5713 5712 5712 5711 5710 5710
5763 5762 5761 5760 5759 5758 5757 5757 5756 5755 5753 5752 5751 5750 5748 5747 5746 5744 5742 5740 5739 5737 5735 5732 5730 5728 5726 5725 5723 5722 5720 5719 5718 5717 5716 5715 5714 5713 5712 5711 5711 5710 5709